Shelby, NC

1:50 PM EST on February 09, 2016 (GMT -0500)
Shelby Municipal

Weather History for KEHO - December, 2012

Change the Weather History Date:

Sunday, December 23, 2012

  Actual Average Record
Temperature  
Mean Temperature 38 °F -  
Max Temperature 55 °F - - ()
Min Temperature 23 °F - - ()
Degree Days  
Heating Degree Days 26    
Moisture  
Dew Point 18 °F    
Average Humidity 45    
Maximum Humidity 77    
Minimum Humidity 19    
Precipitation  
Precipitation 0.00 in - - ()
Sea Level Pressure  
Sea Level Pressure 30.08 in    
Wind  
Wind Speed 2 mph (South)    
Max Wind Speed 8 mph    
Max Gust Speed -    
Visibility 10 miles    
Events      
T = Trace of Precipitation, MM = Missing Value Source: NWS Daily Summary

Daily Weather History Graph

Daily Weather History Graph

Search for Another Location

Airport or City:

Trip Planner

Search our weather history database for the weather conditions in past years. The results will help you decide how hot, cold, wet, or windy it might be!

Date:

Astronomy

Dec. 23, 2012 Rise Set
Actual Time 7:32 AM EST 5:19 PM EST
Civil Twilight 7:04 AM EST 5:47 PM EST
Nautical Twilight 6:32 AM EST 6:19 PM EST
Astronomical Twilight 6:01 AM EST 6:50 PM EST
Moon 2:05 PM EST (12/23) 3:18 AM EST (12/23)
Length of Visible Light 10h 43m
Length of Day
9h 46m
Waxing Gibbous, 81% of the Moon is Illuminated
Dec 23
Waxing Gibbous
Dec 28
Full
Jan 4
Last Quarter
Jan 11
New
Jan 18
First Quarter

Hourly Weather History & Observations

Time (EST) Temp. Windchill Dew Point Humidity Pressure Visibility Wind Dir Wind Speed Gust Speed Precip Events Conditions
12:15 AM 34.2 °F - 4.8 °F 29% 30.12 in 10.0 mi Calm Calm - N/A   Clear
12:35 AM 34.5 °F - 3.6 °F 27% 30.11 in 10.0 mi Calm Calm - N/A   Clear
12:55 AM 35.4 °F - 4.3 °F 27% 30.11 in 10.0 mi Calm Calm - N/A   Clear
1:15 AM 33.4 °F - 5.7 °F 31% 30.11 in 10.0 mi Calm Calm - N/A   Clear
1:35 AM 31.1 °F - 7.5 °F 37% 30.11 in 10.0 mi Calm Calm - N/A   Clear
1:55 AM 34.2 °F - 5.0 °F 29% 30.11 in 10.0 mi Calm Calm - N/A   Clear
2:15 AM 30.9 °F - 6.6 °F 36% 30.11 in 10.0 mi Calm Calm - N/A   Clear
2:35 AM 29.8 °F - 9.9 °F 43% 30.12 in 10.0 mi Calm Calm - N/A   Clear
2:55 AM 28.4 °F 22.2 °F 10.9 °F 48% 30.11 in 10.0 mi ENE 5.8 mph - N/A   Clear
3:15 AM 26.8 °F - 14.2 °F 59% 30.12 in 10.0 mi Calm Calm - N/A   Clear
3:35 AM 26.6 °F 19.1 °F 14.2 °F 60% 30.11 in 10.0 mi NNE 6.9 mph - N/A   Clear
3:55 AM 27.3 °F - 14.0 °F 57% 30.10 in 10.0 mi Calm Calm - N/A   Clear
4:15 AM 28.2 °F - 13.8 °F 55% 30.11 in 10.0 mi Calm Calm - N/A   Clear
4:35 AM 24.6 °F - 15.6 °F 69% 30.12 in 10.0 mi Calm Calm - N/A   Clear
4:55 AM 26.2 °F - 14.7 °F 62% 30.12 in 10.0 mi Calm Calm - N/A   Clear
5:15 AM 27.7 °F - 12.6 °F 53% 30.12 in 10.0 mi Calm Calm - N/A   Clear
5:35 AM 25.0 °F - 14.9 °F 66% 30.12 in 10.0 mi Calm Calm - N/A   Clear
5:55 AM 25.5 °F - 15.1 °F 65% 30.12 in 10.0 mi Calm Calm - N/A   Clear
6:15 AM 25.9 °F 21.7 °F 14.0 °F 61% 30.13 in 10.0 mi NNE 3.5 mph - N/A   Clear
6:35 AM 25.3 °F - 15.1 °F 65% 30.13 in 10.0 mi Calm Calm - N/A   Clear
6:55 AM 26.2 °F - 14.9 °F 62% 30.12 in 10.0 mi Calm Calm - N/A   Clear
7:15 AM 24.3 °F - 16.5 °F 72% 30.13 in 10.0 mi Calm Calm - N/A   Clear
7:35 AM 23.5 °F 19.1 °F 17.4 °F 77% 30.14 in 10.0 mi NE 3.5 mph - N/A   Clear
7:55 AM 25.2 °F - 17.2 °F 72% 30.15 in 10.0 mi Calm Calm - N/A   Clear
8:15 AM 26.8 °F - 16.9 °F 66% 30.15 in 10.0 mi Calm Calm - N/A   Clear
8:35 AM 27.5 °F - 19.4 °F 72% 30.15 in 10.0 mi Calm Calm - N/A   Clear
8:55 AM 28.4 °F - 21.4 °F 75% 30.15 in 10.0 mi Calm Calm - N/A   Clear
9:15 AM 29.3 °F - 21.4 °F 72% 30.15 in 10.0 mi Calm Calm - N/A   Clear
9:35 AM 30.0 °F - 20.1 °F 67% 30.15 in 10.0 mi Calm Calm - N/A   Clear
9:55 AM 32.0 °F - 19.0 °F 59% 30.14 in 10.0 mi Calm Calm - N/A   Clear
10:15 AM 33.1 °F - 22.1 °F 64% 30.14 in 10.0 mi Calm Calm - N/A   Clear
10:35 AM 34.5 °F - 22.1 °F 61% 30.14 in 10.0 mi Calm Calm - N/A   Clear
10:55 AM 35.8 °F - 22.8 °F 59% 30.14 in 10.0 mi Calm Calm - N/A   Clear
11:15 AM 37.6 °F - 21.9 °F 53% 30.13 in 10.0 mi Calm Calm - N/A   Clear
11:35 AM 39.7 °F - 21.6 °F 48% 30.12 in 10.0 mi Calm Calm - N/A   Clear
11:55 AM 42.1 °F - 17.2 °F 37% 30.11 in 10.0 mi Calm Calm - N/A   Clear
12:15 PM 43.5 °F 41.9 °F 17.8 °F 36% 30.09 in 10.0 mi South 3.5 mph - N/A   Clear
12:35 PM 44.6 °F - 18.3 °F 35% 30.08 in 10.0 mi Calm Calm - N/A   Clear
12:55 PM 46.6 °F - 18.1 °F 32% 30.07 in 10.0 mi South 4.6 mph - N/A   Clear
1:15 PM 48.4 °F - 15.8 °F 27% 30.06 in 10.0 mi SSW 5.8 mph - N/A   Clear
1:35 PM 49.8 °F - 16.0 °F 26% 30.05 in 10.0 mi SW 6.9 mph - N/A   Clear
1:55 PM 51.4 °F - 16.0 °F 25% 30.04 in 10.0 mi SSW 6.9 mph - N/A   Clear
2:15 PM 53.2 °F - 15.3 °F 22% 30.04 in 10.0 mi SSW 5.8 mph - N/A   Clear
2:35 PM 54.5 °F - 12.4 °F 19% 30.03 in 10.0 mi SW 6.9 mph - N/A   Clear
2:55 PM 54.9 °F - 13.5 °F 19% 30.03 in 10.0 mi SW 8.1 mph - N/A   Clear
3:15 PM 54.5 °F - 15.1 °F 21% 30.03 in 10.0 mi SW 8.1 mph - N/A   Clear
3:35 PM 54.0 °F - 15.3 °F 22% 30.03 in 10.0 mi SSW 6.9 mph - N/A   Clear
3:55 PM 54.0 °F - 16.7 °F 23% 30.04 in 10.0 mi SSW 5.8 mph - N/A   Clear
4:15 PM 53.1 °F - 18.7 °F 26% 30.04 in 10.0 mi South 4.6 mph - N/A   Clear
4:35 PM 52.2 °F - 19.4 °F 28% 30.04 in 10.0 mi South 6.9 mph - N/A   Clear
4:55 PM 51.4 °F - 19.6 °F 29% 30.03 in 10.0 mi South 4.6 mph - N/A   Clear
5:15 PM 50.9 °F - 20.3 °F 30% 30.04 in 10.0 mi South 3.5 mph - N/A   Clear
5:35 PM 50.0 °F - 20.1 °F 31% 30.04 in 10.0 mi South 3.5 mph - N/A   Clear
5:55 PM 49.8 °F - 20.1 °F 31% 30.04 in 10.0 mi Calm Calm - N/A   Clear
6:15 PM 49.3 °F - 20.3 °F 32% 30.03 in 10.0 mi SSE 3.5 mph - N/A   Clear
6:35 PM 48.9 °F - 20.3 °F 32% 30.04 in 10.0 mi South 3.5 mph - N/A   Clear
6:55 PM 48.6 °F - 20.8 °F 34% 30.04 in 10.0 mi South 3.5 mph - N/A   Clear
7:15 PM 48.4 °F - 21.2 °F 34% 30.04 in 10.0 mi SSE 3.5 mph - N/A   Mostly Cloudy
7:35 PM 48.2 °F - 21.6 °F 35% 30.04 in 10.0 mi SSE 5.8 mph - N/A   Overcast
7:55 PM 48.6 °F - 22.1 °F 35% 30.04 in 10.0 mi SSE 5.8 mph - N/A   Mostly Cloudy
8:15 PM 47.7 °F - 23.0 °F 38% 30.04 in 10.0 mi SSE 3.5 mph - N/A   Scattered Clouds
8:35 PM 47.7 °F - 22.8 °F 38% 30.04 in 10.0 mi South 3.5 mph - N/A   Scattered Clouds
8:55 PM 47.7 °F - 23.7 °F 39% 30.04 in 10.0 mi South 4.6 mph - N/A   Mostly Cloudy
9:15 PM 47.7 °F - 25.5 °F 42% 30.04 in 10.0 mi SSW 5.8 mph - N/A   Scattered Clouds
9:35 PM 48.0 °F - 26.6 °F 43% 30.04 in 10.0 mi SSW 5.8 mph - N/A   Scattered Clouds
9:55 PM 47.8 °F - 27.5 °F 45% 30.05 in 10.0 mi SSW 4.6 mph - N/A   Clear
10:15 PM 48.2 °F - 27.9 °F 45% 30.05 in 10.0 mi South 4.6 mph - N/A   Scattered Clouds
10:35 PM 48.2 °F - 28.2 °F 46% 30.04 in 10.0 mi South 4.6 mph - N/A   Scattered Clouds
10:55 PM 48.0 °F - 28.4 °F 47% 30.04 in 10.0 mi Calm Calm - N/A   Scattered Clouds
11:15 PM 47.7 °F - 29.1 °F 49% 30.04 in 10.0 mi South 3.5 mph - N/A   Scattered Clouds
11:35 PM 48.2 °F - 29.7 °F 49% 30.04 in 10.0 mi South 4.6 mph - N/A   Scattered Clouds
11:55 PM 48.2 °F - 30.0 °F 49% 30.04 in 10.0 mi South 4.6 mph - N/A   Scattered Clouds